• In Romania
  • List of Countries
  • For 7 days
  • Water Temperature
  • Satellite Maps
  • Weather Map
  • Weather Widgets
  • user-avatar
    Login

    Hourly Weather Shetnevo

    Today, 19 April, Thursday

    Time Temperature Precipitation Wind Pressure Humidity
    00:00 +6°C° 0.3 mm 5 mps 743 mmHg 90%
    01:00 +6°C° 0.3 mm 5 mps 743 mmHg 90%
    02:00 +6°C° 0 mm 4 mps 743 mmHg 90%
    03:00 +6°C° 0.3 mm 4 mps 743 mmHg 90%
    04:00 +5°C° 0.3 mm 5 mps 743 mmHg 91%
    05:00 +5°C° 0.3 mm 5 mps 743 mmHg 91%
    06:00 +5°C° 0.4 mm 5 mps 743 mmHg 91%
    07:00 +5°C° 0.4 mm 5 mps 743 mmHg 90%
    08:00 +5°C° 0.4 mm 5 mps 743 mmHg 90%
    09:00 +6°C° 0.3 mm 5 mps 743 mmHg 89%
    10:00 +6°C° 0.3 mm 5 mps 743 mmHg 88%
    11:00 +6°C° 0.3 mm 4 mps 743 mmHg 87%
    12:00 +7°C° 0.2 mm 4 mps 743 mmHg 85%
    13:00 +7°C° 0.2 mm 4 mps 744 mmHg 84%
    14:00 +8°C° 0.2 mm 4 mps 744 mmHg 82%
    15:00 +8°C° 0 mm 4 mps 744 mmHg 79%
    16:00 +10°C° 0 mm 4 mps 744 mmHg 76%
    17:00 +10°C° 0 mm 4 mps 745 mmHg 73%
    18:00 +10°C° 0 mm 4 mps 745 mmHg 76%
    19:00 +8°C° 0 mm 4 mps 745 mmHg 78%
    20:00 +8°C° 0 mm 3 mps 746 mmHg 81%
    21:00 +7°C° 0 mm 3 mps 746 mmHg 82%
    22:00 +7°C° 0 mm 3 mps 746 mmHg 84%
    23:00 +5°C° 0 mm 3 mps 747 mmHg 85%

    Tomorrow, 20 April, Friday

    Time Temperature Precipitation Wind Pressure Humidity
    00:00 +5°C° 0 mm 3 mps 747 mmHg 88%
    01:00 +4°C° 0 mm 3 mps 747 mmHg 90%
    02:00 +4°C° 0 mm 3 mps 748 mmHg 93%
    03:00 +4°C° 0 mm 3 mps 748 mmHg 94%
    04:00 +4°C° 0 mm 3 mps 748 mmHg 95%
    05:00 +3°C° 0 mm 3 mps 748 mmHg 96%
    06:00 +4°C° 0 mm 3 mps 748 mmHg 91%
    07:00 +5°C° 0 mm 3 mps 749 mmHg 86%
    08:00 +6°C° 0 mm 4 mps 749 mmHg 81%
    09:00 +8°C° 0 mm 3 mps 749 mmHg 77%
    10:00 +9°C° 0 mm 3 mps 749 mmHg 72%
    11:00 +10°C° 0 mm 3 mps 749 mmHg 68%
    12:00 +10°C° 0 mm 3 mps 749 mmHg 65%
    13:00 +11°C° 0 mm 3 mps 748 mmHg 63%
    14:00 +13°C° 0 mm 2 mps 748 mmHg 61%
    15:00 +13°C° 0 mm 2 mps 748 mmHg 60%
    16:00 +13°C° 0 mm 2 mps 747 mmHg 59%
    17:00 +14°C° 0 mm 2 mps 747 mmHg 58%
    18:00 +12°C° 0 mm 2 mps 746 mmHg 65%
    19:00 +10°C° 0 mm 2 mps 746 mmHg 72%
    20:00 +8°C° 0 mm 2 mps 745 mmHg 79%
    21:00 +8°C° 0 mm 2 mps 744 mmHg 79%
    22:00 +8°C° 0 mm 3 mps 744 mmHg 78%
    23:00 +9°C° 0 mm 3 mps 743 mmHg 77%

    Day after tomorrow, 21 April, Saturday

    Time Temperature Precipitation Wind Pressure Humidity
    00:00 +8°C° 0 mm 4 mps 742 mmHg 80%
    01:00 +8°C° 0 mm 4 mps 741 mmHg 83%
    02:00 +8°C° 0 mm 4 mps 740 mmHg 86%
    03:00 +8°C° 0 mm 4 mps 739 mmHg 87%
    04:00 +8°C° 0 mm 4 mps 738 mmHg 88%
    05:00 +8°C° 0 mm 4 mps 737 mmHg 89%
    06:00 +9°C° 0 mm 5 mps 736 mmHg 85%
    07:00 +10°C° 0 mm 5 mps 735 mmHg 81%
    08:00 +11°C° 0 mm 6 mps 734 mmHg 77%
    09:00 +11°C° 0.2 mm 6 mps 734 mmHg 78%
    10:00 +11°C° 0.2 mm 6 mps 733 mmHg 79%
    11:00 +11°C° 0.2 mm 6 mps 733 mmHg 80%
    12:00 +11°C° 0.2 mm 7 mps 733 mmHg 75%
    13:00 +11°C° 0.2 mm 7 mps 733 mmHg 69%
    14:00 +11°C° 0.2 mm 7 mps 733 mmHg 64%
    15:00 +10°C° 0 mm 7 mps 733 mmHg 61%
    16:00 +10°C° 0 mm 6 mps 734 mmHg 58%
    17:00 +10°C° 0 mm 6 mps 734 mmHg 55%
    18:00 +9°C° 0.1 mm 5 mps 735 mmHg 61%
    19:00 +8°C° 0.1 mm 5 mps 735 mmHg 68%
    20:00 +7°C° 0.1 mm 4 mps 735 mmHg 74%
    21:00 +6°C° 0 mm 4 mps 735 mmHg 76%
    22:00 +6°C° 0 mm 4 mps 736 mmHg 78%
    23:00 +5°C° 0 mm 4 mps 736 mmHg 80%

    22 April, Sunday

    Time Temperature Precipitation Wind Pressure Humidity
    00:00 +5°C° 0 mm 4 mps 736 mmHg 80%
    01:00 +5°C° 0 mm 4 mps 736 mmHg 80%
    02:00 +5°C° 0 mm 4 mps 737 mmHg 80%
    03:00 +5°C° 0.1 mm 4 mps 737 mmHg 81%
    04:00 +4°C° 0.1 mm 4 mps 737 mmHg 82%
    05:00 +4°C° 0.1 mm 4 mps 737 mmHg 83%
    06:00 +5°C° 0.1 mm 4 mps 737 mmHg 81%
    07:00 +5°C° 0.1 mm 4 mps 738 mmHg 79%
    08:00 +6°C° 0.1 mm 4 mps 738 mmHg 77%
    09:00 +6°C° 0.2 mm 4 mps 738 mmHg 73%
    10:00 +7°C° 0.2 mm 5 mps 738 mmHg 69%
    11:00 +8°C° 0.2 mm 5 mps 738 mmHg 65%
    12:00 +8°C° 0.4 mm 5 mps 738 mmHg 63%
    13:00 +9°C° 0.4 mm 5 mps 738 mmHg 62%
    14:00 +9°C° 0.4 mm 5 mps 738 mmHg 60%
    15:00 +10°C° 0.5 mm 4 mps 738 mmHg 64%
    16:00 +8°C° 0.5 mm 4 mps 738 mmHg 68%
    17:00 +8°C° 0.5 mm 3 mps 738 mmHg 71%
    18:00 +7°C° 0.2 mm 3 mps 739 mmHg 77%
    19:00 +6°C° 0.2 mm 2 mps 739 mmHg 83%
    20:00 +6°C° 0.2 mm 1 mps 739 mmHg 88%
    21:00 +5°C° 0 mm 1 mps 740 mmHg 90%
    22:00 +5°C° 0 mm 1 mps 740 mmHg 92%
    23:00 +4°C° 0 mm 1 mps 740 mmHg 93%

    23 April, Monday

    Time Temperature Precipitation Wind Pressure Humidity
    00:00 +4°C° 0 mm 1 mps 741 mmHg 93%
    01:00 +3°C° 0 mm 1 mps 741 mmHg 93%
    02:00 +3°C° 0 mm 1 mps 741 mmHg 92%
    03:00 +2°C° 0 mm 1 mps 741 mmHg 92%
    04:00 +2°C° 0 mm 1 mps 742 mmHg 92%
    05:00 +1°C° 0 mm 1 mps 742 mmHg 92%
    06:00 +3°C° 0 mm 1 mps 742 mmHg 84%
    07:00 +5°C° 0 mm 1 mps 742 mmHg 77%
    08:00 +6°C° 0 mm 1 mps 743 mmHg 69%
    09:00 +8°C° 0 mm 1 mps 743 mmHg 63%
    10:00 +9°C° 0 mm 1 mps 743 mmHg 57%
    11:00 +10°C° 0 mm 1 mps 743 mmHg 51%
    12:00 +11°C° 0 mm 1 mps 743 mmHg 49%
    13:00 +12°C° 0 mm 1 mps 743 mmHg 46%
    14:00 +12°C° 0 mm 1 mps 742 mmHg 43%
    15:00 +12°C° 0 mm 1 mps 742 mmHg 44%
    16:00 +11°C° 0 mm 1 mps 742 mmHg 44%
    17:00 +11°C° 0 mm 1 mps 741 mmHg 45%
    18:00 +9°C° 0 mm 1 mps 741 mmHg 51%
    19:00 +8°C° 0 mm 1 mps 741 mmHg 57%
    20:00 +6°C° 0 mm 1 mps 741 mmHg 63%
    21:00 +6°C° 0 mm 1 mps 741 mmHg 65%
    22:00 +5°C° 0 mm 1 mps 741 mmHg 66%
    23:00 +4°C° 0 mm 2 mps 741 mmHg 68%

    24 April, Tuesday

    Time Temperature Precipitation Wind Pressure Humidity
    00:00 +4°C° 0 mm 2 mps 741 mmHg 71%
    01:00 +3°C° 0 mm 2 mps 740 mmHg 73%
    02:00 +3°C° 0 mm 2 mps 740 mmHg 75%
    03:00 +3°C° 0 mm 2 mps 740 mmHg 76%
    04:00 +2°C° 0 mm 3 mps 739 mmHg 77%
    05:00 +3°C° 0 mm 3 mps 739 mmHg 78%
    06:00 +3°C° 0.2 mm 3 mps 738 mmHg 76%
    07:00 +4°C° 0.2 mm 4 mps 738 mmHg 74%
    08:00 +5°C° 0.2 mm 4 mps 738 mmHg 72%
    09:00 +6°C° 0.4 mm 4 mps 737 mmHg 75%
    10:00 +6°C° 0.4 mm 4 mps 737 mmHg 77%
    11:00 +6°C° 0.4 mm 4 mps 737 mmHg 79%
    12:00 +6°C° 0.4 mm 4 mps 737 mmHg 80%
    13:00 +6°C° 0.4 mm 4 mps 736 mmHg 81%
    14:00 +7°C° 0.4 mm 4 mps 736 mmHg 83%
    15:00 +6°C° 0.6 mm 4 mps 736 mmHg 85%
    16:00 +7°C° 0.6 mm 3 mps 735 mmHg 87%
    17:00 +7°C° 0.6 mm 3 mps 735 mmHg 89%
    18:00 +5°C° 0.5 mm 3 mps 735 mmHg 90%
    19:00 +5°C° 0.5 mm 3 mps 735 mmHg 92%
    20:00 +6°C° 0.5 mm 2 mps 734 mmHg 94%
    21:00 +6°C° 0.1 mm 2 mps 734 mmHg 94%
    22:00 +5°C° 0.1 mm 2 mps 734 mmHg 95%
    23:00 +5°C° 0.1 mm 2 mps 734 mmHg 96%
    Show more